sat.trackr.live / text

‹ back to catalog

STARLINK-11230 [DTC]

NORAD 61053 · 2024-164D

PAYLOAD ACTIVE UNKNOWN

§ Identity

Operator
Country
US
Launch date
2024-09-13
Launch site
AFWTR
Launch vehicle
Mass (kg)
RCS (m²)

Purposes: comms

External: N2YO · Heavens-Above · Gunter

§ Orbital elements

Epoch: 2026-09-21T20:55:38.004096Z

Period
91.74 min
Inclination
53.1603°
Eccentricity
0.0001227
Mean motion
15.69716848 rev/d
Perigee alt
358.9 km
Apogee alt
360.5 km
Semi-major
6,737.8 km
B*
-1.7316e-6
RAAN
64.0089°
Arg perigee
72.6242°
Mean anomaly
287.4910°
Rev number
11,623

§ Raw data

STARLINK-11230 [DTC]1 61053U 24164D   26264.87196764 -.00000799  00000+0 -17316-5 0  99992 61053  53.1603  64.0089 0001227  72.6242 287.4910 15.69716848116236

JSON: /api/v1/satellites/61053 · /tle

For live sub-satellite position, see the globe view (requires WebGL).

§ Visibility from observer

Set your observer location to see the next 7 days of passes ≥ 10°. The values pass through the URL so the page stays shareable.

No JS? Fill the form by hand. The geolocation button needs JavaScript.